Simultaneous Nadir Overpasses (SNOs) Predictions

Prediction of SNOs between NOAA-19 and TERRA Satellite Orbit:

Table of predicted SNOs for the next 14.0 days since TLE Epoch: 11/3/2012
Index Date (NOAA-19) Time (NOAA-19) NOAA-19 Lat,Lon Date (TERRA) Time (TERRA) TERRA Lat,Lon Distance(km) Time Diff (sec)
1 11/04/2012 12:35:50 69.26, -9.70 11/04/2012 12:37:01 69.26, -9.54 6.35 71
2 11/04/2012 13:26:52 -69.02, 157.88 11/04/2012 13:26:33 -69.03, 157.80 3.27 19
3 11/06/2012 17:20:21 69.17, -80.69 11/06/2012 17:21:19 69.19, -80.69 2.02 58
4 11/06/2012 18:11:25 -69.03, 86.73 11/06/2012 18:10:50 -69.02, 86.72 0.79 35
5 11/08/2012 22:04:53 69.14,-151.78 11/08/2012 22:05:36 69.17,-151.79 2.77 43
6 11/08/2012 22:55:57 -69.00, 15.64 11/08/2012 22:55:07 -69.00, 15.63 0.36 50
7 11/11/2012 02:49:25 69.12, 137.12 11/11/2012 02:49:53 69.13, 137.10 1.43 28
8 11/11/2012 03:40:29 -68.99, -55.47 11/11/2012 03:39:24 -68.97, -55.47 1.79 65
9 11/13/2012 07:33:57 69.11, 66.01 11/13/2012 07:34:10 69.09, 65.98 2.71 13
10 11/13/2012 08:24:56 -68.72,-126.22 11/13/2012 08:23:43 -68.82,-126.73 23.32 73
11 11/15/2012 11:27:42 -69.73,-173.27 11/15/2012 11:28:52 -69.59,-172.07 48.99 70
12 11/15/2012 12:18:29 69.11, -5.12 11/15/2012 12:18:26 69.09, -5.08 2.63 3
13 11/15/2012 13:09:18 -68.20, 163.35 11/15/2012 13:08:09 -68.27, 161.52 75.59 69
14 11/17/2012 16:12:04 -69.22, 116.34 11/17/2012 16:13:15 -69.20, 116.35 2.94 71
15 11/17/2012 17:03:00 69.07, -76.18 11/17/2012 17:02:42 69.08, -76.16 1.76
